Weather History for Cordova, AK

Change the Weather History Date:

Wednesday, February 27, 2013

  Actual Average Record
Temperature  
Mean Temperature 37 °F -  
Max Temperature 41 °F 36 °F 50 °F (1963)
Min Temperature 33 °F 19 °F -10 °F (1954)
Degree Days  
Heating Degree Days 28    
Moisture  
Dew Point 31 °F    
Average Humidity 84    
Maximum Humidity 96    
Minimum Humidity 40    
Precipitation  
Precipitation 0.16 in - - ()
Snow  
Snow 0.00 in - - ()
Snow Depth 6.00 in    
Sea Level Pressure  
Sea Level Pressure 29.35 in    
Wind  
Wind Speed 10 mph (East)    
Max Wind Speed 21 mph    
Max Gust Speed 30 mph    
Visibility 8 miles    
Events Rain , Snow    
Averages and records for this station are not official NWS values.
T = Trace of Precipitation, MM = Missing Value Source: NWS Daily Summary

Daily Weather History Graph

Daily Weather History Graph

Search for Another Location

Airport:

Trip Planner

Search our weather history database for the weather conditions in past years. The results will help you decide how hot, cold, wet, or windy it might be!

Date:

Astronomy

Feb. 27, 2013 Rise Set
Actual Time 7:45 AM AKST 6:04 PM AKST
Civil Twilight 7:03 AM AKST 6:47 PM AKST
Nautical Twilight 6:14 AM AKST 7:35 PM AKST
Astronomical Twilight 5:24 AM AKST 8:25 PM AKST
Moon 9:31 PM AKST (2/27) 7:41 AM AKST (2/27)
Length of Visible Light 11h 44m
Length of Day
10h 18m
Waning Gibbous, 95% of the Moon is Illuminated
Feb 27
Waning Gibbous
Mar 4
Last Quarter
Mar 11
New
Mar 19
First Quarter
Mar 27
Full

Hourly Weather History & Observations

Time (AKST) Temp. Windchill Dew Point Humidity Pressure Visibility Wind Dir Wind Speed Gust Speed Precip Events Conditions
12:53 AM 41.0 °F 34.3 °F 18.0 °F 40% 29.27 in 10.0 mi ESE 11.5 mph 17.3 mph N/A   Overcast
1:53 AM 37.9 °F 29.2 °F 26.1 °F 62% 29.29 in 10.0 mi ESE 15.0 mph 21.9 mph N/A   Overcast
3:53 AM 39.0 °F 31.0 °F 28.0 °F 65% 29.27 in 10.0 mi NE 13.8 mph 26.5 mph 0.00 in Rain Light Rain
4:51 AM 37.4 °F 29.3 °F 30.2 °F 75% 29.25 in 10.0 mi ENE 12.7 mph 18.4 mph 0.00 in Rain Light Rain
4:53 AM 37.0 °F 29.8 °F 30.0 °F 76% 29.25 in 9.0 mi ENE 10.4 mph 18.4 mph 0.00 in Rain Light Rain
5:53 AM 34.0 °F 26.6 °F 30.9 °F 89% 29.26 in 4.0 mi ENE 9.2 mph 18.4 mph 0.01 in Rain , Snow Light Rain
6:23 AM 35.6 °F 27.1 °F 30.2 °F 81% 29.27 in 10.0 mi ENE 12.7 mph 17.3 mph 0.00 in Rain , Snow Light Rain
6:53 AM 36.0 °F 29.6 °F 30.9 °F 82% 29.27 in 10.0 mi East 8.1 mph - 0.00 in Rain Light Rain
7:20 AM 35.6 °F 28.6 °F 32.0 °F 87% 29.28 in 9.0 mi NE 9.2 mph 20.7 mph 0.01 in Rain Light Rain
8:53 AM 35.1 °F 26.4 °F 32.0 °F 89% 29.31 in 3.0 mi East 12.7 mph 18.4 mph 0.02 in Snow Light Snow
9:53 AM 35.1 °F 23.8 °F 32.0 °F 89% 29.34 in 4.0 mi East 20.7 mph 29.9 mph 0.01 in Snow Light Snow
10:53 AM 35.1 °F 24.5 °F 30.9 °F 85% 29.37 in 9.0 mi ESE 18.4 mph 25.3 mph 0.01 in Rain Light Rain
11:06 AM 35.6 °F 27.1 °F 32.0 °F 87% 29.37 in 8.0 mi East 12.7 mph 21.9 mph 0.00 in Snow Light Snow
11:53 AM 35.1 °F 28.6 °F 32.0 °F 89% 29.39 in 9.0 mi East 8.1 mph - 0.00 in Snow Light Snow
12:53 PM 35.1 °F 27.9 °F 32.0 °F 89% 29.40 in 6.0 mi East 9.2 mph - 0.01 in Snow Light Snow
1:04 PM 35.6 °F 26.6 °F 30.2 °F 81% 29.40 in 2.5 mi East 13.8 mph - 0.01 in Snow Light Snow
1:12 PM 33.8 °F 25.8 °F 30.2 °F 87% 29.40 in 1.0 mi East 10.4 mph 18.4 mph 0.02 in Snow Light Snow
1:24 PM 33.8 °F 27.0 °F 32.0 °F 93% 29.40 in 0.8 mi East 8.1 mph - 0.04 in Snow Light Snow
1:34 PM 33.8 °F 28.6 °F 32.0 °F 93% 29.40 in 1.2 mi ENE 5.8 mph - 0.04 in Snow Light Snow
1:43 PM 33.8 °F 28.6 °F 32.0 °F 93% 29.40 in 3.0 mi East 5.8 mph - 0.05 in Snow Light Snow
1:53 PM 34.0 °F 29.8 °F 32.0 °F 92% 29.40 in 2.5 mi East 4.6 mph - 0.05 in Snow Light Snow
2:01 PM 33.8 °F 29.6 °F 32.0 °F 93% 29.40 in 5.0 mi East 4.6 mph - 0.00 in Snow Light Snow
2:53 PM 35.1 °F 32.2 °F 32.0 °F 89% 29.39 in 10.0 mi East 3.5 mph - 0.01 in Rain Light Rain
3:26 PM 35.6 °F 31.7 °F 32.0 °F 87% 29.39 in 10.0 mi East 4.6 mph - 0.00 in Rain Light Rain
3:53 PM 36.0 °F 32.1 °F 30.9 °F 82% 29.38 in 10.0 mi East 4.6 mph - 0.00 in   Overcast
4:14 PM 35.6 °F 29.9 °F 30.2 °F 81% 29.39 in 10.0 mi ESE 6.9 mph - 0.00 in   Overcast
4:53 PM 35.1 °F 32.2 °F 33.1 °F 92% 29.38 in 10.0 mi North 3.5 mph - 0.01 in   Overcast
5:00 PM 35.6 °F - 32.0 °F 87% 29.37 in 10.0 mi Calm Calm - N/A   Overcast
5:53 PM 34.0 °F - 33.1 °F 96% 29.37 in 10.0 mi Calm Calm - 0.00 in   Overcast
6:53 PM 36.0 °F 33.3 °F 30.9 °F 82% 29.37 in 10.0 mi ENE 3.5 mph - N/A   Overcast
7:53 PM 37.0 °F 31.6 °F 30.9 °F 79% 29.37 in 10.0 mi ENE 6.9 mph - 0.00 in   Overcast
8:53 PM 37.0 °F - 30.9 °F 79% 29.36 in 10.0 mi Calm Calm - N/A   Overcast
9:53 PM 37.0 °F 31.6 °F 30.9 °F 79% 29.36 in 10.0 mi East 6.9 mph - 0.00 in Rain Light Rain
10:53 PM 36.0 °F 32.1 °F 32.0 °F 86% 29.35 in 10.0 mi ENE 4.6 mph - 0.00 in   Overcast
11:53 PM 35.1 °F 32.2 °F 33.1 °F 92% 29.33 in 8.0 mi NNW 3.5 mph - 0.03 in Rain Light Rain